#timestamp,LO_Frequency,Hit,StdDev 
1615186815.4,286046975.8,Y
1615186835.2,286046995.8,P
1615186855.0,286047014.0,N
1615186855.9,286047014.0,N
1615186875.8,286047013.2,N
1615186895.6,286047007.1,N
1615186915.4,286047001.9,N
1615186935.3,286047001.8,N
1615186955.1,286047001.5,N
1615186975.9,286047003.1,N
1615186995.7,286047006.6,N
1615187015.5,286047000.8,N
1615187035.4,286046996.5,N
1615187055.2,286046997.1,N
1615187075.1,286046994.8,N
1615187076.0,286046994.8,N
1615187095.8,286046997.2,N
1615187115.7,286046994.9,N
1615187135.5,286047001.6,N
1615187155.3,286047002.8,N
1615187175.2,286047002.4,N
1615187195.0,286046997.2,N
1615187195.9,286046997.2,N
1615187215.7,286046998.7,N
1615187235.6,286047008.8,N
1615187255.4,286047010.7,N
1615187275.3,286047013.9,N
1615187295.1,286047015.2,N
1615187315.9,286047022.5,Y
1615187335.7,286047023.5,P
1615187355.5,286047015.8,N
1615187375.4,286047013.0,N
1615187395.2,286047011.0,N
1615187415.1,286047002.7,N
1615187416.0,286047002.7,N
1615187435.8,286046998.5,N
1615187455.6,286046992.8,N
1615187475.5,286046981.0,N
1615187495.3,286046992.8,N
1615187515.1,286046994.4,N
1615187535.9,286046996.4,N
1615187555.7,286046991.6,N
1615187575.6,286046988.1,N
1615187595.4,286046988.4,N
1615187615.2,286046983.9,N
1615187635.1,286046991.4,N
1615187636.0,286046991.4,N
1615187655.8,286046994.1,N
1615187675.7,286046995.5,N
1615187695.5,286046997.9,N
1615187715.3,286046997.3,N
1615187735.2,286046995.1,N
1615187755.0,286046996.2,N
1615187755.9,286046996.2,N
1615187775.8,286046994.8,N
1615187795.6,286046990.2,N
1615187815.4,286046997.1,N
1615187835.3,286046994.9,N
1615187855.1,286046991.3,N
1615187875.9,286046992.4,N
1615187895.7,286046990.5,N
1615187915.5,286046994.4,N
1615187935.4,286046998.3,N
1615187955.2,286047001.0,N
1615187975.0,286046991.5,N
1615187976.0,286046991.5,N
1615187995.8,286046991.4,N
1615188015.6,286046989.2,N
1615188035.5,286046988.6,Y
1615188055.3,286046998.8,P
1615188075.1,286047002.1,N
1615188095.9,286047002.9,N
1615188115.7,286047006.2,N
1615188135.6,286047005.5,N
1615188155.4,286047004.0,N
1615188175.2,286046999.2,N
1615188195.1,286046995.4,N
1615188196.0,286046995.4,N
1615188215.8,286046987.4,N
1615188235.6,286046981.9,Y
1615188255.5,286046977.5,P
1615188275.3,286046987.2,N
1615188295.2,286046984.1,N
1615188315.9,286046979.8,N
1615188335.7,286046981.4,N
1615188355.6,286046988.3,N
1615188375.4,286046991.0,N
1615188395.2,286046989.1,N
1615188415.1,286046990.5,N
1615188416.0,286046990.5,N
1615188435.8,286046998.1,N
1615188455.7,286047000.1,N
1615188475.5,286047001.7,N
1615188495.3,286047007.1,N
1615188515.2,286047001.5,N
1615188535.9,286047000.5,N
1615188555.7,286046996.5,N
1615188575.6,286046995.7,N
1615188595.4,286046987.7,N
1615188615.3,286046989.9,N
1615188635.1,286046981.6,N
1615188636.0,286046981.6,N
1615188655.8,286046981.5,N
1615188675.7,286046984.7,N
1615188695.5,286046976.4,N
1615188715.3,286046969.7,Y
1615188735.2,286046981.8,P
1615188755.0,286046984.6,P
1615188755.9,286046984.6,P
1615188775.8,286046985.1,Y
1615188795.6,286047002.3,P
1615188815.4,286047002.6,N
1615188835.3,286047002.6,N
1615188855.1,286046994.0,N
1615188875.8,286046993.5,N
1615188895.7,286047002.4,N
1615188915.5,286047000.0,N
1615188935.4,286046998.7,N
1615188955.2,286047007.7,N
1615188975.0,286047010.7,N
1615188975.9,286047010.7,N
1615188995.8,286047009.6,N
1615189015.6,286047009.5,N
1615189035.4,286047004.6,N
1615189055.3,286047005.7,N
1615189075.1,286047006.4,N
1615189095.9,286047012.4,N
1615189115.7,286047009.0,N
1615189135.5,286047004.7,N
1615189155.4,286047007.5,N
1615189175.2,286047005.1,N
1615189195.0,286047002.6,N
1615189196.0,286047002.6,N
1615189215.8,286046999.8,N
1615189235.6,286046999.5,N
1615189255.5,286046996.7,N
1615189275.3,286047007.4,N
1615189295.1,286047009.7,N
1615189315.9,286047011.5,N
1615189335.7,286047015.6,N
1615189355.5,286047015.5,N
1615189375.4,286047011.2,N
1615189395.2,286047015.4,N
1615189415.1,286047015.3,N
1615189416.0,286047015.3,N
1615189435.8,286047015.6,N
1615189455.6,286047013.7,N
1615189475.5,286047016.7,Y
1615189495.3,286047009.6,P
1615189515.2,286047011.5,P
1615189535.9,286047011.2,P
1615189555.7,286047012.4,Y
1615189575.6,286046999.1,P
1615189595.4,286047001.3,N
1615189615.2,286047011.8,N
1615189635.1,286047013.0,N
1615189636.0,286047013.0,N
1615189655.8,286047014.9,N
1615189675.7,286047011.7,N
1615189695.5,286047010.7,N
1615189715.3,286047003.4,N
1615189735.2,286047011.7,N
1615189755.0,286047013.6,N
1615189755.9,286047013.6,N
1615189775.8,286047013.0,N
1615189795.6,286047013.3,N
1615189815.4,286047017.2,Y
1615189835.3,286047011.9,P
1615189855.1,286047011.3,P
1615189875.8,286047015.2,P
1615189895.7,286047008.5,Y
1615189915.5,286046996.2,P
1615189935.4,286046999.3,N
1615189955.2,286046999.1,N
1615189975.0,286047000.6,N
1615189975.9,286047000.6,N
1615189995.8,286046999.1,N
1615190015.6,286047004.1,N
1615190035.4,286046998.1,N
1615190055.3,286046993.9,N
1615190075.1,286046991.0,N
1615190095.9,286046983.9,Y
1615190115.7,286046989.4,P
1615190135.5,286046988.0,N
1615190155.4,286046986.3,N
1615190175.2,286046984.8,N
1615190195.0,286046982.7,Y
1615190196.0,286046982.7,P
1615190215.8,286046991.2,N
1615190235.6,286046985.8,P
1615190255.5,286046980.8,Y
1615190275.3,286046992.4,P
1615190295.1,286046987.1,P
1615190315.9,286046988.5,P
1615190335.7,286046987.8,Y
1615190355.6,286046994.7,P
1615190375.4,286046994.8,N
1615190395.2,286046993.5,N
